When you browse on this site, cookies collect data to enhance your experience and personalize the content and advertising you see.
Visit our Privacy Policy to learn more. By continuing to use the site, you agree to this use of cookies and data.
  • în România
  • Lista ţărilor
  • Pe 7 zile
  • Temperatura apei
  • Hartă satelitară
  • Meteo pe hartă
  • Widget-uri
  • user-avatar
    Intrare

    Meteo pe oră la Lourdes

    Astăzi, 19 Aprilie, Vineri

    Timp Temperatura Precipitaţii Vânt Presiune Umiditate
    00:00 +10°C° 0 mm 2 m/s 696 mmHg 81%
    01:00 +11°C° 0 mm 1 m/s 696 mmHg 79%
    02:00 +11°C° 0 mm 1 m/s 696 mmHg 78%
    03:00 +10°C° 0 mm 1 m/s 696 mmHg 77%
    04:00 +11°C° 0 mm 1 m/s 697 mmHg 75%
    05:00 +11°C° 0 mm 1 m/s 697 mmHg 73%
    06:00 +11°C° 0 mm 1 m/s 697 mmHg 72%
    07:00 +12°C° 0 mm 1 m/s 698 mmHg 72%
    08:00 +14°C° 0 mm 1 m/s 698 mmHg 71%
    09:00 +15°C° 0 mm 1 m/s 699 mmHg 71%
    10:00 +15°C° 0 mm 1 m/s 699 mmHg 72%
    11:00 +16°C° 0 mm 1 m/s 699 mmHg 73%
    12:00 +16°C° 0 mm 1 m/s 699 mmHg 73%
    13:00 +16°C° 0 mm 1 m/s 700 mmHg 72%
    14:00 +18°C° 0 mm 1 m/s 700 mmHg 70%
    15:00 +19°C° 0 mm 1 m/s 700 mmHg 68%
    16:00 +18°C° 0 mm 1 m/s 700 mmHg 73%
    17:00 +16°C° 0 mm 1 m/s 700 mmHg 78%
    18:00 +15°C° 0 mm 1 m/s 700 mmHg 83%
    19:00 +14°C° 0 mm 1 m/s 701 mmHg 85%
    20:00 +13°C° 0 mm 1 m/s 701 mmHg 87%
    21:00 +12°C° 0 mm 1 m/s 701 mmHg 89%
    22:00 +11°C° 0 mm 1 m/s 701 mmHg 90%
    23:00 +11°C° 0 mm 1 m/s 701 mmHg 92%

    Mâine, 20 Aprilie, Sâmbătă

    Timp Temperatura Precipitaţii Vânt Presiune Umiditate
    00:00 +10°C° 0 mm 1 m/s 701 mmHg 93%
    01:00 +10°C° 0 mm 1 m/s 701 mmHg 92%
    02:00 +10°C° 0 mm 1 m/s 700 mmHg 91%
    03:00 +10°C° 0 mm 1 m/s 700 mmHg 91%
    04:00 +10°C° 0 mm 1 m/s 700 mmHg 89%
    05:00 +10°C° 0 mm 1 m/s 700 mmHg 87%
    06:00 +10°C° 0 mm 1 m/s 700 mmHg 85%
    07:00 +12°C° 0 mm 1 m/s 700 mmHg 78%
    08:00 +14°C° 0 mm 1 m/s 700 mmHg 72%
    09:00 +15°C° 0 mm 1 m/s 700 mmHg 65%
    10:00 +16°C° 0 mm 2 m/s 700 mmHg 63%
    11:00 +17°C° 0 mm 2 m/s 700 mmHg 62%
    12:00 +17°C° 0 mm 2 m/s 700 mmHg 60%
    13:00 +17°C° 0.1 mm 2 m/s 699 mmHg 61%
    14:00 +17°C° 0.1 mm 2 m/s 699 mmHg 63%
    15:00 +17°C° 0.1 mm 2 m/s 699 mmHg 65%
    16:00 +16°C° 0.3 mm 2 m/s 699 mmHg 70%
    17:00 +15°C° 0.3 mm 2 m/s 698 mmHg 75%
    18:00 +14°C° 0.3 mm 1 m/s 698 mmHg 80%
    19:00 +12°C° 0.1 mm 1 m/s 698 mmHg 80%
    20:00 +11°C° 0.1 mm 1 m/s 698 mmHg 80%
    21:00 +9°C° 0.1 mm 0 m/s 698 mmHg 81%
    22:00 +9°C° 0.3 mm 0 m/s 698 mmHg 81%
    23:00 +8°C° 0.3 mm 0 m/s 698 mmHg 82%

    Poimâine, 21 Aprilie, Duminică

    Timp Temperatura Precipitaţii Vânt Presiune Umiditate
    00:00 +8°C° 0.3 mm 0 m/s 698 mmHg 82%
    01:00 +8°C° 0.6 mm 0 m/s 697 mmHg 85%
    02:00 +7°C° 0.6 mm 0 m/s 697 mmHg 87%
    03:00 +7°C° 0.6 mm 0 m/s 697 mmHg 90%
    04:00 +7°C° 0.3 mm 0 m/s 696 mmHg 91%
    05:00 +7°C° 0.3 mm 0 m/s 696 mmHg 91%
    06:00 +7°C° 0.3 mm 0 m/s 696 mmHg 92%
    07:00 +8°C° 0.2 mm 0 m/s 696 mmHg 88%
    08:00 +10°C° 0.2 mm 1 m/s 696 mmHg 85%
    09:00 +11°C° 0.2 mm 1 m/s 696 mmHg 81%
    10:00 +12°C° 0.2 mm 1 m/s 696 mmHg 78%
    11:00 +13°C° 0.2 mm 1 m/s 696 mmHg 76%
    12:00 +13°C° 0.2 mm 1 m/s 696 mmHg 73%
    13:00 +14°C° 0.1 mm 1 m/s 695 mmHg 71%
    14:00 +14°C° 0.1 mm 1 m/s 695 mmHg 69%
    15:00 +15°C° 0.1 mm 1 m/s 694 mmHg 68%
    16:00 +14°C° 0.2 mm 1 m/s 694 mmHg 72%
    17:00 +13°C° 0.2 mm 1 m/s 693 mmHg 77%
    18:00 +12°C° 0.2 mm 1 m/s 693 mmHg 82%
    19:00 +11°C° 0.1 mm 1 m/s 693 mmHg 85%
    20:00 +10°C° 0.1 mm 1 m/s 693 mmHg 87%
    21:00 +9°C° 0.1 mm 1 m/s 693 mmHg 90%
    22:00 +8°C° 0.1 mm 0 m/s 692 mmHg 90%
    23:00 +7°C° 0.1 mm 0 m/s 692 mmHg 89%

    22 Aprilie, Luni

    Timp Temperatura Precipitaţii Vânt Presiune Umiditate
    00:00 +7°C° 0.1 mm 0 m/s 691 mmHg 89%
    01:00 +7°C° 0.3 mm 0 m/s 690 mmHg 89%
    02:00 +7°C° 0.3 mm 0 m/s 690 mmHg 90%
    03:00 +7°C° 0.3 mm 0 m/s 689 mmHg 90%
    04:00 +7°C° 0.1 mm 0 m/s 689 mmHg 90%
    05:00 +7°C° 0.1 mm 0 m/s 688 mmHg 90%
    06:00 +8°C° 0.1 mm 1 m/s 688 mmHg 91%
    07:00 +10°C° 0.1 mm 1 m/s 688 mmHg 85%
    08:00 +11°C° 0.1 mm 1 m/s 688 mmHg 79%
    09:00 +12°C° 0.1 mm 1 m/s 687 mmHg 74%
    10:00 +13°C° 0.3 mm 1 m/s 687 mmHg 73%
    11:00 +13°C° 0.3 mm 1 m/s 686 mmHg 73%
    12:00 +13°C° 0.3 mm 1 m/s 686 mmHg 73%
    13:00 +13°C° 0.5 mm 1 m/s 685 mmHg 73%
    14:00 +13°C° 0.5 mm 0 m/s 685 mmHg 73%
    15:00 +13°C° 0.5 mm 0 m/s 684 mmHg 73%
    16:00 +12°C° 0.4 mm 0 m/s 684 mmHg 76%
    17:00 +13°C° 0.4 mm 1 m/s 684 mmHg 79%
    18:00 +12°C° 0.4 mm 1 m/s 684 mmHg 83%
    19:00 +12°C° 0.3 mm 1 m/s 684 mmHg 83%
    20:00 +11°C° 0.3 mm 1 m/s 684 mmHg 84%
    21:00 +10°C° 0.3 mm 2 m/s 684 mmHg 85%
    22:00 +10°C° 0.2 mm 2 m/s 683 mmHg 84%
    23:00 +9°C° 0.2 mm 2 m/s 683 mmHg 83%

    23 Aprilie, Marţi

    Timp Temperatura Precipitaţii Vânt Presiune Umiditate
    00:00 +9°C° 0.2 mm 2 m/s 683 mmHg 83%
    01:00 +9°C° 0 mm 2 m/s 682 mmHg 81%
    02:00 +9°C° 0 mm 2 m/s 682 mmHg 80%
    03:00 +8°C° 0 mm 2 m/s 682 mmHg 79%
    04:00 +9°C° 0 mm 2 m/s 682 mmHg 78%
    05:00 +9°C° 0 mm 2 m/s 682 mmHg 77%
    06:00 +9°C° 0 mm 3 m/s 682 mmHg 76%
    07:00 +12°C° 0.1 mm 2 m/s 682 mmHg 71%
    08:00 +14°C° 0.1 mm 2 m/s 683 mmHg 66%
    09:00 +16°C° 0.1 mm 1 m/s 683 mmHg 62%
    10:00 +16°C° 0.8 mm 1 m/s 683 mmHg 69%
    11:00 +15°C° 0.8 mm 2 m/s 683 mmHg 76%
    12:00 +14°C° 0.8 mm 2 m/s 683 mmHg 83%
    13:00 +15°C° 0.2 mm 2 m/s 683 mmHg 74%
    14:00 +17°C° 0.2 mm 2 m/s 683 mmHg 65%
    15:00 +18°C° 0.2 mm 2 m/s 683 mmHg 57%
    16:00 +16°C° 1.4 mm 2 m/s 684 mmHg 68%
    17:00 +14°C° 1.4 mm 2 m/s 684 mmHg 79%
    18:00 +12°C° 1.4 mm 2 m/s 684 mmHg 90%
    19:00 +10°C° 0.2 mm 2 m/s 684 mmHg 90%
    20:00 +9°C° 0.2 mm 2 m/s 685 mmHg 89%
    21:00 +8°C° 0.2 mm 2 m/s 686 mmHg 89%
    22:00 +7°C° 0 mm 2 m/s 686 mmHg 89%
    23:00 +7°C° 0 mm 2 m/s 686 mmHg 88%

    24 Aprilie, Miercuri

    Timp Temperatura Precipitaţii Vânt Presiune Umiditate
    00:00 +6°C° 0 mm 2 m/s 686 mmHg 88%
    01:00 +7°C° 0.2 mm 2 m/s 686 mmHg 88%
    02:00 +8°C° 0.2 mm 1 m/s 687 mmHg 88%
    03:00 +8°C° 0.2 mm 1 m/s 687 mmHg 88%
    04:00 +8°C° 0.2 mm 1 m/s 687 mmHg 89%
    05:00 +8°C° 0.2 mm 1 m/s 687 mmHg 91%
    06:00 +8°C° 0.2 mm 1 m/s 687 mmHg 92%
    07:00 +9°C° 0.9 mm 1 m/s 688 mmHg 93%
    08:00 +9°C° 0.9 mm 1 m/s 688 mmHg 93%
    09:00 +8°C° 0.9 mm 2 m/s 688 mmHg 93%
    10:00 +9°C° 1 mm 2 m/s 689 mmHg 92%
    11:00 +9°C° 1 mm 2 m/s 689 mmHg 91%
    12:00 +10°C° 1 mm 2 m/s 689 mmHg 90%
    13:00 +10°C° 0.4 mm 2 m/s 689 mmHg 87%
    14:00 +10°C° 0.4 mm 2 m/s 689 mmHg 84%
    15:00 +12°C° 0.4 mm 2 m/s 689 mmHg 82%
    16:00 +10°C° 0.1 mm 2 m/s 689 mmHg 84%
    17:00 +10°C° 0.1 mm 2 m/s 689 mmHg 87%
    18:00 +9°C° 0.1 mm 2 m/s 689 mmHg 90%
    19:00 +8°C° 0 mm 2 m/s 689 mmHg 88%
    20:00 +8°C° 0 mm 2 m/s 689 mmHg 86%
    21:00 +7°C° 0 mm 2 m/s 689 mmHg 84%
    22:00 +6°C° 0 mm 2 m/s 689 mmHg 82%
    23:00 +5°C° 0 mm 2 m/s 689 mmHg 80%
    Arată mai mult